User: anonymous   Login
Location: Arrodets-la-Barthe
(43.0306°N, 0.2829°E)
Time: 11:57:03
(UTC+00:00)
Language:

Iridium 4 Rocket - Orbit

View from above orbital plane
View from above orbital plane
View from above satellite
View from above satellite

Ground track
Ground track

The orbit data is extracted from the following two-line orbital elements,

1 24797U 97020F   22272.36539580  .00000413  00000-0  82742-4 0  9996
2 24797  86.9020   6.3341 0223907   0.6071  65.1422 14.44550301336481
Epoch (UTC): 29 September 2022 08:46:10
Eccentricity: 0.0223907
inclination: 86.9020°
perigee height: 584 km
apogee height: 903 km
right ascension of ascending node: 6.3341°
argument of perigee: 0.6071°
revolutions per day: 14.44550301
mean anomaly at epoch: 65.1422°
orbit number at epoch: 33648

The dashed part of the orbit path shows where the satellite is in the earth's shadow,  

DLR